ROMMA est une association bénévole à but non lucratif. Votre soutien est indispensable : ADHERER à ROMMA ou FAIRE un DON

Le Versoud - (38, Isère)

Vallée du Grésivaudan (220 m)   Longitude: 05° 51' 44" E   Latitude: 45° 13' 06" N Station partenaire n°6
 

Détail journalier du     <<     >>

Température Humidité Pression Vent Dir Rafale Dir. rafale Ensol.
Heure (°C) (%) (hPa) (km/h) (km/h) (min)
01:00 17.794100100---0
02:00 17.694100100---0
03:00 17.694100000---0
04:00 17.494100100---0
05:00 16.9941001010N0
06:00 17.58410022S18SSE0
07:00 15.9911002011S0
08:00 16.0911003010SSE0
09:00 16.79010043SSE26SE0
10:00 16.492100506ESE0
11:00 16.691100606ESE0
12:00 17.090100600---0
13:00 17.389100700---0
14:00 17.191100700---0
15:00 16.892100800---0
16:00 17.689100800---0
17:00 18.087100902ESE0
18:00 17.2871009011ESE0
19:00 17.5861009010E0
20:00 17.286101006ESE0
21:00 17.187101000---0
22:00 16.389101002SE0
23:00 16.389101000---0
minuit 16.389101000---0

Graphique du 28-07-2019

 

Serveur OMMA